{"data":{"norad_id":54803,"intl_designator":"2022-175AX","name":"STARLINK-5430","alt_names":[],"object_type":"PAYLOAD","status":"ACTIVE","operator":null,"country":"US","launch_date":"2022-12-17","launch_site_code":"AFETR","launch_vehicle":null,"mission":null,"orbit_class":"UNKNOWN","rcs_meters":null,"size_class":null,"mass_kg":null,"dimensions":null,"purposes":["comms"],"wikipedia_slug":null,"has_3d_model":false,"image_url":null,"decayed_at":null,"tle_current":{"epoch":"2026-05-25T01:33:41.830272Z","epoch_age_seconds":79947,"freshness":"FRESH","line1":"1 54803U 22175AX  26145.06506748 -.00002687  00000+0 -15074-3 0  9995","line2":"2 54803  53.2133  60.9209 0001485  97.3102 262.8059 15.08852161191454","mean_motion":15.08852161,"eccentricity":0.0001485,"inclination_deg":53.2133,"raan_deg":60.9209,"arg_perigee_deg":97.3102,"mean_anomaly_deg":262.8059,"bstar":-0.00015074,"rev_number":19145,"period_min":95.436785473113,"perigee_km":538.67891818399,"apogee_km":540.7335176197,"semimajor_km":6917.8432179018,"source":"CELESTRAK","updated_at":"2026-05-25T13:38:17.697643Z"}}}